Wind_Speed
13 12 12 9 4 10 6 3 7 4 11 2 4 4 7 9 9 10 7 5 4 5 7 10 16 18 18 17 15 14 10 6 5 5 4 4 3 4 3 3 4 5 7
14 13 11 7 4 9 6 5 7 6 8 3 6 8 8 8 9 8 9 7 5 7 14 22 20 17 15 14 11 11 12 9 4 5 6 4 3 3 4 4 4 5 5
8 7 6 6 12 8 6 4 3 5 4 9 8 8 7 8 9 8 10 15 19 22 19 17 13 11 11 12 11 9 6 6 4 9 7 7 7 8 7 7 7 7 6
9 7 6 5 3 6 2 4 7 9 11 10 10 9 7 6 5 7 7 7 13 16 16 13 9 10 13 13 12 12 11 11 11 11 9 8 7 5 5 8 6 4 3
7 5 3 6 7 6 5 5 9 6 9 12 12 10 7 8 7 7 10 11 12 12 16 15 14 13 11 12 13 11 10 10 9 8 8 6 7 6 5 6 5 6 4
4 5 6 6 7 7 5 3 8 8 11 12 13 10 7 6 7 7 10 16 11 9 7 7 9 12 11 9 11 11 8 7 8 8 6 6 6 7 6 6 5 5 6
8 8 8 9 7 6 5 5 8 12 14 15 13 10 7 6 7 7 8 9 12 9 5 4 6 7 10 12 9 9 8 7 7 6 5 6 5 6 6 5 5 5 6
11 11 8 7 8 7 5 4 4 7 4 13 4 6 3 2 7 8 6 8 11 12 14 7 7 10 10 10 8 10 9 7 8 4 5 6 5 5 5 5 5 5 5
10 8 7 7 6 6 5 3 3 3 3 9 7 2 2 2 3 6 8 10 9 12 13 9 7 11 12 10 9 10 9 9 9 8 4 4 5 4 4 4 6 5 5
7 7 7 6 4 3 5 5 4 5 4 5 8 5 13 3 3 2 5 9 10 11 12 14 11 9 11 10 9 11 11 10 8 6 7 4 4 4 5 4 5 7 7
8 8 6 4 3 3 2 2 3 4 6 6 4 3 6 4 5 2 2 3 13 15 15 14 15 10 8 9 9 9 10 10 9 6 5 3 4 4 5 4 6 8 8
10 8 6 6 4 3 3 3 5 6 5 6 5 5 3 1 4 4 2 2 4 10 16 17 17 15 11 11 13 12 11 12 11 8 7 4 4 4 5 5 6 8 10
12 12 11 9 6 6 6 5 6 5 5 4 4 4 5 4 5 6 4 5 4 3 10 19 20 18 17 17 14 12 12 13 12 10 9 6 6 6 6 6 8 9 10
13 12 12 11 9 9 10 9 9 8 7 7 7 7 7 6 6 6 4 6 2 3 6 8 21 20 18 19 15 13 11 14 13 10 7 6 6 6 8 8 10 9 9
18 17 15 12 12 13 12 11 10 11 11 10 9 8 8 8 6 8 6 3 3 3 5 13 8 21 23 20 18 13 14 15 14 11 9 7 7 7 6 6 7 8 9
15 22 21 19 19 17 15 14 14 11 13 12 10 9 9 8 6 8 7 5 1 1 3 10 15 21 26 23 20 14 13 15 14 12 12 11 9 8 8 9 8 8 11
13 18 19 17 16 16 16 16 16 14 13 15 12 10 10 8 10 8 7 6 5 4 3 3 12 21 27 26 20 16 17 14 13 11 11 11 10 9 8 9 8 8 10
13 13 12 14 15 15 15 19 19 18 16 14 15 14 13 10 9 6 5 7 8 8 7 6 13 23 24 25 23 21 17 13 11 11 9 9 9 8 7 5 7 8 10
10 9 10 10 10 12 13 13 18 18 17 12 11 6 6 5 5 5 3 5 4 6 4 9 9 15 22 25 24 20 17 15 12 11 9 8 9 10 9 7 8 8 7
7 6 5 7 10 11 10 11 9 9 12 11 9 6 6 5 5 3 1 3 3 6 4 9 14 18 21 23 24 23 21 19 18 13 11 10 12 9 8 8 8 7 9
7 4 4 3 2 5 7 8 9 8 10 9 8 7 5 4 4 3 2 1 2 3 2 14 16 14 16 23 25 23 22 24 19 16 15 13 13 12 11 9 9 8 9
5 5 4 5 5 3 1 4 7 5 5 7 8 5 4 3 4 6 7 5 4 2 1 5 14 17 18 22 23 26 25 21 8 19 18 16 15 15 15 10 8 8 8
3 3 4 5 4 3 6 4 8 6 9 9 9 7 6 4 3 1 1 1 3 6 8 4 7 16 18 27 28 27 27 26 15 21 21 17 17 17 13 11 10 8 7
4 4 4 4 3 3 3 1 3 7 9 7 7 8 8 7 4 2 2 3 4 5 7 7 7 9 13 23 32 32 28 23 15 23 23 7 22 21 15 11 9 8 7
1 1 3 3 2 5 1 2 4 7 10 10 9 8 7 6 4 4 5 5 4 6 9 8 7 4 7 16 28 27 25 22 11 15 26 12 19 19 14 11 9 8 8
3 4 6 4 3 3 3 4 6 7 9 8 6 5 2 1 3 2 4 3 6 2 4 5 2 5 3 6 18 24 26 20 16 9 18 12 25 14 7 12 9 10 9
Wind_Direction
205 209 221 222 228 274 302 259 317 163 339 258 98 73 40 23 7 27 65 85 140 161 161 165 147 143 140 141 136 144 133 142 133 127 136 159 197 218 219 210 221 231 238
217 214 212 232 330 329 306 247 160 115 200 190 88 66 48 42 25 50 85 99 113 119 124 126 121 117 121 128 130 120 130 138 141 100 123 160 159 183 202 191 197 186 187
220 204 209 284 315 279 265 149 216 230 196 115 84 66 42 39 73 75 94 107 119 120 122 116 111 115 111 110 108 102 96 102 122 125 122 121 124 114 110 125 135 129 141
197 199 301 308 124 110 138 87 84 106 134 111 97 90 76 74 96 125 125 123 133 133 122 117 123 114 114 110 105 103 99 99 102 106 109 112 113 123 118 94 101 137 160
227 260 211 168 146 139 185 151 99 117 136 124 111 108 106 105 117 117 128 126 119 132 127 122 123 120 121 114 109 103 101 101 102 101 108 112 99 109 92 91 89 76 96
190 172 176 181 180 168 166 116 104 129 150 137 119 111 124 137 141 153 138 134 126 118 115 119 125 129 122 120 116 111 106 97 111 109 98 91 84 86 76 69 69 79 85
160 159 175 172 174 158 144 140 113 148 139 142 122 112 117 145 167 171 171 158 148 138 148 157 164 153 158 140 117 122 119 122 119 121 111 95 83 81 76 59 63 71 80
175 181 184 182 172 155 160 167 152 165 194 186 154 146 160 175 203 201 194 174 161 153 164 176 169 172 189 178 167 147 139 150 134 144 124 113 100 82 78 80 67 65 70
191 203 203 191 179 161 166 177 242 238 251 227 220 186 129 215 151 222 214 201 188 180 180 150 170 201 203 197 199 184 169 161 149 148 141 132 123 108 98 97 102 86 83
205 195 185 187 183 256 277 273 272 270 278 297 299 321 277 217 182 202 231 223 216 212 213 204 191 204 216 223 206 198 194 187 175 154 143 144 129 120 120 126 102 107 101
187 174 182 207 190 180 167 227 239 246 254 256 292 321 313 299 237 134 227 226 217 214 214 210 197 197 212 217 211 201 204 201 189 160 140 148 123 116 122 111 109 114 102
174 182 190 181 179 192 233 259 237 245 248 253 270 298 325 317 336 269 130 208 258 218 209 211 212 201 214 213 225 221 205 202 195 174 149 141 132 110 114 111 114 110 107
193 197 193 195 203 219 240 251 251 255 252 259 257 269 267 289 337 313 243 162 160 216 207 219 220 210 212 216 221 219 197 199 199 173 163 147 128 116 111 117 119 104 99
203 195 197 201 212 222 225 239 238 247 253 250 260 268 280 285 323 336 16 163 150 157 215 228 221 210 209 210 216 223 195 198 199 179 171 171 155 133 129 110 94 95 98
215 209 203 205 208 213 235 249 247 238 238 241 263 259 268 280 303 310 326 44 204 177 221 223 194 205 209 205 204 210 202 193 192 183 170 157 152 164 139 118 102 101 100
190 204 201 202 209 222 226 229 239 243 239 238 237 247 253 265 272 279 306 317 284 225 242 207 207 195 198 198 199 204 193 176 180 182 176 166 157 149 136 112 99 103 108
201 189 197 206 218 222 228 233 241 242 244 248 239 241 244 242 258 270 280 307 333 322 277 234 193 187 184 185 182 184 172 175 171 179 181 177 164 161 142 139 109 112 109
200 208 210 217 223 228 241 239 239 235 242 234 225 249 264 250 265 290 285 287 304 310 285 195 156 170 183 183 186 179 174 174 177 170 174 177 178 174 176 142 130 120 113
194 209 218 225 231 242 246 248 241 236 235 223 213 209 176 216 232 259 286 266 285 320 286 207 163 169 165 184 174 176 167 170 171 160 165 162 159 157 140 141 122 116 113
179 175 209 240 254 259 257 250 251 234 218 201 193 219 228 211 215 249 252 260 270 275 335 202 158 158 164 174 177 163 157 171 162 163 166 165 163 165 168 152 134 124 119
172 197 225 220 227 239 245 260 253 242 211 212 196 198 217 208 238 256 273 329 354 232 304 186 171 164 165 166 175 176 162 169 175 183 178 169 155 154 149 145 137 136 122
202 239 283 305 309 324 355 262 258 207 207 196 176 169 168 223 268 280 278 275 262 320 312 172 185 182 184 189 186 173 166 163 175 195 181 174 179 171 164 165 146 144 157
245 273 301 298 302 335 13 329 272 210 173 159 154 162 183 191 225 133 74 319 279 260 257 288 209 206 194 198 195 183 184 182 181 181 187 180 189 161 156 154 150 149 148
291 307 323 334 359 12 323 143 150 168 149 140 152 173 179 177 168 173 277 247 268 294 285 265 270 233 232 222 220 207 197 184 173 176 186 155 172 156 163 155 148 155 139
261 12 50 70 73 110 20 87 154 141 128 120 124 136 159 172 200 255 258 244 286 305 316 266 257 281 262 222 212 197 175 171 150 170 188 143 159 153 165 167 163 166 157
104 98 113 120 126 132 123 143 139 135 130 125 116 127 140 229 269 246 196 222 251 263 347 353 296 258 239 191 203 213 189 176 141 141 179 141 161 153 157 184 187 194 190
Height
831 832 834 835 836 837 832 835 834 834 834 838 837 836 838 840 836 837 836 837 838 839 839 840 841 842 843 844 847 845 848 852 854 854 856 857 858 857 857 857 856 856 857
831 832 833 833 834 835 834 833 834 835 837 836 835 833 839 840 839 838 838 839 840 839 840 840 842 845 847 846 847 848 847 850 852 854 856 857 857 857 856 856 855 855 855
831 833 834 833 832 832 834 834 835 836 836 835 837 837 839 840 839 840 843 841 841 841 843 843 845 847 851 848 848 849 850 851 850 854 856 856 856 856 856 855 854 855 855
829 830 833 834 833 832 834 836 835 834 833 838 839 841 842 844 842 841 844 845 846 844 845 846 846 849 850 850 850 850 852 855 856 855 857 856 856 856 857 856 856 854 854
829 831 831 831 832 833 834 833 835 834 836 838 840 842 844 844 845 846 842 845 848 847 847 849 848 851 852 851 852 854 854 854 856 857 857 858 857 857 858 857 856 855 853
827 830 832 833 833 832 833 834 836 836 837 838 841 843 846 847 847 848 847 840 846 848 850 849 851 852 853 855 853 854 857 857 856 858 859 858 859 857 859 859 857 856 855
827 827 829 830 832 832 833 835 837 837 840 840 840 845 848 847 848 849 850 845 842 844 849 852 852 852 855 854 856 854 857 858 859 858 859 858 860 858 858 859 859 858 856
825 826 828 829 831 831 833 834 836 837 837 838 839 842 844 846 845 846 848 847 843 845 848 850 852 849 855 854 855 856 855 859 857 861 860 858 859 859 858 858 859 859 857
826 828 829 829 830 830 832 833 835 837 838 838 839 839 842 842 845 845 845 844 845 846 847 850 852 850 851 851 854 855 857 858 858 859 862 859 859 858 859 858 857 858 858
824 826 827 830 830 831 832 833 833 835 836 837 838 837 838 837 840 845 845 843 844 844 845 848 850 850 852 852 854 855 857 858 859 861 860 862 860 858 858 859 858 856 858
824 826 828 829 830 830 831 832 831 832 833 834 834 834 835 836 836 837 840 840 839 841 845 847 848 848 851 853 854 855 857 857 858 862 861 862 860 860 859 859 858 857 857
823 825 827 828 829 830 831 832 832 833 833 833 833 834 834 834 836 837 838 842 843 839 839 843 845 847 848 850 853 853 852 855 858 861 861 861 861 861 860 859 860 858 857
821 822 823 825 828 829 830 831 831 831 831 831 831 831 831 832 831 832 832 835 839 844 841 840 841 844 846 848 850 852 852 855 857 859 860 861 861 860 861 861 859 858 857
817 818 820 823 825 826 828 829 830 830 829 830 830 830 830 831 831 832 831 831 835 836 840 837 837 841 844 846 849 849 851 854 858 859 860 861 861 862 861 860 858 858 856
814 816 817 819 822 824 826 828 828 828 828 828 829 830 830 830 830 831 833 830 830 835 835 835 835 837 841 844 846 848 850 852 855 858 860 861 862 862 861 860 861 860 858
810 813 815 817 820 822 823 824 825 825 825 825 826 827 827 828 827 827 828 830 829 829 831 832 832 831 837 841 843 847 850 851 853 857 859 860 862 862 862 861 862 863 860
808 810 813 815 818 819 821 821 822 823 823 823 824 824 824 824 825 824 826 826 827 828 829 832 830 829 834 838 842 845 849 852 853 856 858 860 861 862 862 861 863 865 862
809 811 813 813 815 816 817 819 819 819 819 819 820 821 822 824 825 824 824 825 825 826 828 831 829 829 833 837 838 842 848 851 853 856 858 860 861 862 863 863 863 864 863
806 808 810 811 812 814 814 814 814 815 814 814 816 817 818 821 823 824 822 825 823 825 825 827 827 828 832 836 838 843 847 850 853 856 858 860 862 862 863 864 864 864 865
804 806 808 810 811 811 812 812 812 812 812 812 812 815 816 819 821 821 821 822 822 823 826 826 827 828 831 836 838 842 847 850 853 856 858 859 861 862 863 865 865 865 865
802 804 806 807 807 807 807 808 809 810 810 811 811 813 815 818 820 819 820 821 821 821 824 825 826 828 830 833 835 838 842 847 852 853 855 858 859 861 864 865 866 866 866
801 802 805 807 808 807 806 807 808 809 809 809 810 813 815 818 819 819 818 819 820 821 822 823 824 826 827 829 832 834 838 845 849 851 853 856 859 860 862 863 865 866 866
802 802 804 806 806 807 806 807 807 809 809 809 810 811 815 817 818 819 819 819 819 820 822 823 823 822 823 824 827 829 832 834 838 843 849 854 857 859 862 863 864 866 866
804 804 806 807 807 807 807 808 807 808 809 810 810 812 813 816 817 818 818 818 819 819 820 821 820 820 819 820 821 822 826 831 836 840 845 850 853 857 861 863 864 865 866
802 802 804 806 808 808 809 808 808 809 810 810 811 813 814 815 816 817 816 817 818 818 818 818 818 818 817 816 817 819 822 828 833 837 841 844 852 856 860 862 864 865 866
802 804 804 807 808 809 809 809 809 810 810 812 813 813 814 815 815 815 815 817 817 818 818 818 817 817 816 814 815 816 818 822 827 835 838 842 848 853 859 861 862 864 865